TimePDT,TemperatureF,Dew PointF,Humidity,Sea Level PressureIn,VisibilityMPH,Wind Direction,Wind SpeedMPH,Gust SpeedMPH,PrecipitationIn,Events,Conditions,WindDirDegrees,DateUTC
12:15 AM,48.2,48.2,100,30.20,9.0,North,3.5,-,N/A,,Overcast,360,2013-04-03 07:15:00
12:35 AM,48.2,48.2,100,30.20,6.0,NNW,5.8,-,N/A,,Overcast,340,2013-04-03 07:35:00
12:55 AM,48.2,48.2,100,30.19,2.5,North,4.6,-,N/A,,Overcast,360,2013-04-03 07:55:00
1:15 AM,48.2,48.2,100,30.18,3.0,NNE,6.9,-,N/A,,Overcast,20,2013-04-03 08:15:00
1:35 AM,46.4,46.4,100,30.19,9.0,Calm,Calm,-,N/A,,Overcast,0,2013-04-03 08:35:00
1:55 AM,46.4,46.4,100,30.18,5.0,East,3.5,-,N/A,,Overcast,80,2013-04-03 08:55:00
2:15 AM,46.4,46.4,100,30.17,6.0,East,3.5,-,N/A,,Overcast,90,2013-04-03 09:15:00
2:35 AM,46.4,46.4,100,30.17,9.0,East,4.6,-,N/A,,Overcast,90,2013-04-03 09:35:00
2:55 AM,46.4,46.4,100,30.18,3.0,Calm,Calm,-,N/A,,Overcast,0,2013-04-03 09:55:00
3:15 AM,46.4,46.4,100,30.17,0.8,Calm,Calm,-,N/A,,Overcast,0,2013-04-03 10:15:00
3:35 AM,46.4,46.4,100,30.17,3.0,Calm,Calm,-,N/A,,Overcast,0,2013-04-03 10:35:00
3:55 AM,46.4,46.4,100,30.17,1.2,Calm,Calm,-,N/A,,Overcast,0,2013-04-03 10:55:00
4:15 AM,46.4,46.4,100,30.16,0.8,Calm,Calm,-,N/A,,Overcast,0,2013-04-03 11:15:00
4:35 AM,46.4,46.4,100,30.15,0.5,Calm,Calm,-,N/A,,Overcast,0,2013-04-03 11:35:00
4:55 AM,46.4,46.4,100,30.14,0.8,Calm,Calm,-,N/A,,Overcast,0,2013-04-03 11:55:00
5:15 AM,46.4,46.4,100,30.14,0.5,Calm,Calm,-,N/A,,Overcast,0,2013-04-03 12:15:00
5:35 AM,46.4,46.4,100,30.13,0.5,Calm,Calm,-,N/A,,Overcast,0,2013-04-03 12:35:00
5:55 AM,46.4,46.4,100,30.12,0.2,Calm,Calm,-,N/A,,Overcast,0,2013-04-03 12:55:00
6:15 AM,46.4,46.4,100,30.12,0.2,Calm,Calm,-,N/A,,Overcast,0,2013-04-03 13:15:00
6:35 AM,46.4,46.4,100,30.11,0.5,NNE,3.5,-,N/A,,Overcast,30,2013-04-03 13:35:00
6:55 AM,46.4,46.4,100,30.11,0.2,Calm,Calm,-,N/A,,Overcast,0,2013-04-03 13:55:00
7:15 AM,46.4,46.4,100,30.11,0.2,Calm,Calm,-,N/A,,Overcast,0,2013-04-03 14:15:00
7:35 AM,46.4,46.4,100,30.11,0.2,Calm,Calm,-,N/A,,Overcast,0,2013-04-03 14:35:00
7:55 AM,46.4,46.4,100,30.12,0.5,WSW,4.6,-,N/A,,Overcast,240,2013-04-03 14:55:00
8:15 AM,46.4,46.4,100,30.12,0.5,WSW,5.8,-,N/A,,Overcast,240,2013-04-03 15:15:00
8:35 AM,46.4,46.4,100,30.12,0.5,Calm,Calm,-,N/A,,Overcast,0,2013-04-03 15:35:00
8:55 AM,46.4,46.4,100,30.12,0.2,Calm,Calm,-,N/A,,Overcast,0,2013-04-03 15:55:00
9:15 AM,48.2,46.4,93,30.12,1.0,Calm,Calm,-,N/A,,Overcast,0,2013-04-03 16:15:00
9:35 AM,48.2,46.4,93,30.12,1.0,Calm,Calm,-,N/A,,Overcast,0,2013-04-03 16:35:00
9:55 AM,48.2,48.2,100,30.11,1.0,Calm,Calm,-,N/A,,Overcast,0,2013-04-03 16:55:00
10:15 AM,48.2,48.2,100,30.11,1.5,Calm,Calm,-,N/A,,Overcast,0,2013-04-03 17:15:00
10:35 AM,48.2,48.2,100,30.12,1.5,West,4.6,-,N/A,,Overcast,270,2013-04-03 17:35:00
10:55 AM,50.0,48.2,94,30.13,10.0,SW,3.5,-,N/A,,Overcast,230,2013-04-03 17:55:00
11:15 AM,50.0,50.0,100,30.13,10.0,West,3.5,-,N/A,,Overcast,280,2013-04-03 18:15:00
11:35 AM,50.0,48.2,94,30.13,10.0,West,4.6,-,N/A,,Overcast,280,2013-04-03 18:35:00
11:55 AM,50.0,50.0,100,30.11,10.0,NNE,4.6,-,N/A,,Overcast,30,2013-04-03 18:55:00
12:15 PM,51.8,50.0,94,30.11,10.0,NW,3.5,-,N/A,,Scattered Clouds,310,2013-04-03 19:15:00
12:35 PM,51.8,51.8,100,30.11,10.0,West,6.9,-,N/A,,Clear,270,2013-04-03 19:35:00
12:55 PM,51.8,50.0,94,30.09,10.0,West,5.8,-,N/A,,Clear,270,2013-04-03 19:55:00
1:15 PM,53.6,51.8,94,30.08,10.0,West,4.6,-,N/A,,Clear,280,2013-04-03 20:15:00
1:35 PM,53.6,51.8,94,30.08,10.0,West,5.8,-,N/A,,Clear,270,2013-04-03 20:35:00
1:55 PM,53.6,51.8,94,30.08,10.0,West,9.2,-,N/A,,Clear,270,2013-04-03 20:55:00
2:15 PM,53.6,51.8,94,30.07,10.0,West,8.1,-,N/A,,Clear,270,2013-04-03 21:15:00
2:35 PM,53.6,51.8,94,30.06,10.0,West,9.2,-,N/A,,Clear,260,2013-04-03 21:35:00
2:55 PM,53.6,51.8,94,30.07,10.0,West,11.5,-,N/A,,Clear,280,2013-04-03 21:55:00
3:15 PM,51.8,50.0,94,30.07,10.0,WNW,9.2,-,N/A,,Scattered Clouds,290,2013-04-03 22:15:00
3:35 PM,51.8,50.0,94,30.07,10.0,WNW,8.1,-,N/A,,Scattered Clouds,290,2013-04-03 22:35:00
3:55 PM,51.8,50.0,94,30.06,10.0,West,4.6,-,N/A,,Scattered Clouds,280,2013-04-03 22:55:00
4:15 PM,53.6,50.0,88,30.04,10.0,WNW,3.5,-,N/A,,Clear,300,2013-04-03 23:15:00
4:35 PM,53.6,50.0,88,30.04,10.0,West,4.6,-,N/A,,Clear,260,2013-04-03 23:35:00
4:55 PM,53.6,50.0,88,30.03,10.0,West,5.8,-,N/A,,Scattered Clouds,270,2013-04-03 23:55:00
5:15 PM,53.6,50.0,88,30.02,10.0,West,5.8,-,N/A,,Partly Cloudy,280,2013-04-04 00:15:00
5:35 PM,53.6,50.0,88,30.02,10.0,West,6.9,-,N/A,,Clear,270,2013-04-04 00:35:00
5:55 PM,51.8,50.0,94,30.02,10.0,West,5.8,-,N/A,,Clear,270,2013-04-04 00:55:00
6:15 PM,51.8,50.0,94,30.01,10.0,West,5.8,-,N/A,,Clear,260,2013-04-04 01:15:00
6:35 PM,51.8,50.0,94,30.01,10.0,West,4.6,-,N/A,,Partly Cloudy,280,2013-04-04 01:35:00
6:55 PM,51.8,50.0,94,30.00,10.0,Calm,Calm,-,N/A,,Mostly Cloudy,0,2013-04-04 01:55:00
7:15 PM,51.8,50.0,94,29.99,10.0,Calm,Calm,-,N/A,,Mostly Cloudy,0,2013-04-04 02:15:00
7:35 PM,51.8,50.0,94,29.99,10.0,Calm,Calm,-,N/A,,Overcast,0,2013-04-04 02:35:00
7:55 PM,51.8,50.0,94,29.99,10.0,West,3.5,-,N/A,,Overcast,270,2013-04-04 02:55:00
8:15 PM,51.8,50.0,94,29.98,10.0,West,5.8,-,N/A,,Overcast,260,2013-04-04 03:15:00
8:35 PM,51.8,50.0,94,29.97,10.0,Calm,Calm,-,N/A,,Overcast,0,2013-04-04 03:35:00
8:55 PM,51.8,50.0,94,29.97,10.0,Calm,Calm,-,N/A,,Overcast,0,2013-04-04 03:55:00
9:15 PM,51.8,50.0,94,29.96,10.0,Calm,Calm,-,N/A,,Overcast,0,2013-04-04 04:15:00
9:35 PM,51.8,51.8,100,29.96,10.0,Calm,Calm,-,N/A,,Overcast,0,2013-04-04 04:35:00
9:55 PM,51.8,50.0,94,29.96,8.0,West,10.4,-,N/A,,Overcast,270,2013-04-04 04:55:00
10:15 PM,50.0,50.0,100,29.95,10.0,Calm,Calm,-,N/A,,Overcast,0,2013-04-04 05:15:00
10:35 PM,51.8,51.8,100,29.95,10.0,Calm,Calm,-,N/A,,Overcast,0,2013-04-04 05:35:00
10:55 PM,51.8,51.8,100,29.95,8.0,West,5.8,-,N/A,,Overcast,270,2013-04-04 05:55:00
11:15 PM,50.0,50.0,100,29.93,10.0,WNW,5.8,-,N/A,,Overcast,290,2013-04-04 06:15:00
11:35 PM,50.0,50.0,100,29.93,10.0,West,4.6,-,0.01,,Overcast,260,2013-04-04 06:35:00
11:55 PM,50.0,50.0,100,29.94,10.0,West,3.5,-,0.01,,Overcast,260,2013-04-04 06:55:00